Location: Newark
(50.0306°N, 2.3272°E)
Time: 15:41:49
(UTC+00:00)

ISS - Visible Passes

Search period start: 15 November 2019 00:00
Search period end: 25 November 2019 00:00
Orbit: 412 x 421 km, 51.6° (Epoch: 15 November)

Date Brightness Start Highest point End Pass type
(mag) Time Alt. Az. Time Alt. Az. Time Alt. Az.
21 Nov -1.0 18:15:58 10° S 18:16:01 10° S 18:16:01 10° S visible
22 Nov -1.3 17:29:24 10° SE 17:29:50 10° SE 17:29:50 10° SE visible
22 Nov -0.5 19:02:44 10° SW 19:02:45 10° SW 19:02:45 10° SW visible
23 Nov -2.0 18:14:36 10° SSW 18:16:29 25° S 18:16:29 25° S visible
24 Nov -2.2 17:26:40 10° SSW 17:29:20 22° SE 17:30:08 20° ESE visible
24 Nov -0.7 19:02:22 10° WSW 19:03:03 15° WSW 19:03:03 15° WSW visible
